When you browse on this site, cookies collect data to enhance your experience and personalize the content and advertising you see.
Visit our Privacy Policy to learn more. By continuing to use the site, you agree to this use of cookies and data.
  • In Slovakia
  • List of Countries
  • For 7 days
  • Water Temperature
  • Satellite Maps
  • Weather Map
  • Weather Widgets
  • user-avatar
    Login

    Hourly Weather Salta

    Today, 19 February, Tuesday

    Time Temperature Precipitation Wind Pressure Humidity
    00:00 +21°C° 0.7 mm 1 mps 651 mmHg 81%
    01:00 +21°C° 0.7 mm 1 mps 651 mmHg 81%
    02:00 +20°C° 0.7 mm 1 mps 650 mmHg 80%
    03:00 +20°C° 0 mm 1 mps 650 mmHg 81%
    04:00 +20°C° 0 mm 1 mps 650 mmHg 81%
    05:00 +19°C° 0 mm 1 mps 650 mmHg 82%
    06:00 +19°C° 0 mm 0 mps 651 mmHg 76%
    07:00 +21°C° 0 mm 0 mps 652 mmHg 70%
    08:00 +22°C° 0 mm 0 mps 653 mmHg 64%
    09:00 +27°C° 0.1 mm 1 mps 653 mmHg 56%
    10:00 +29°C° 0.1 mm 1 mps 654 mmHg 49%
    11:00 +31°C° 0.1 mm 2 mps 654 mmHg 41%
    12:00 +31°C° 0.2 mm 2 mps 654 mmHg 39%
    13:00 +32°C° 0.2 mm 2 mps 653 mmHg 37%
    14:00 +34°C° 0.2 mm 2 mps 653 mmHg 36%
    15:00 +32°C° 0.1 mm 2 mps 652 mmHg 38%
    16:00 +32°C° 0.1 mm 2 mps 652 mmHg 40%
    17:00 +31°C° 0.1 mm 2 mps 651 mmHg 42%
    18:00 +29°C° 0.3 mm 2 mps 651 mmHg 51%
    19:00 +26°C° 0.3 mm 1 mps 650 mmHg 60%
    20:00 +22°C° 0.3 mm 0 mps 650 mmHg 69%
    21:00 +21°C° 0.3 mm 0 mps 651 mmHg 71%
    22:00 +21°C° 0.3 mm 0 mps 651 mmHg 74%
    23:00 +20°C° 0.3 mm 0 mps 652 mmHg 76%

    Tomorrow, 20 February, Wednesday

    Time Temperature Precipitation Wind Pressure Humidity
    00:00 +20°C° 0.4 mm 0 mps 651 mmHg 76%
    01:00 +21°C° 0.4 mm 1 mps 651 mmHg 76%
    02:00 +21°C° 0.4 mm 1 mps 651 mmHg 76%
    03:00 +20°C° 0 mm 1 mps 650 mmHg 77%
    04:00 +20°C° 0 mm 1 mps 650 mmHg 77%
    05:00 +20°C° 0 mm 1 mps 650 mmHg 78%
    06:00 +22°C° 0 mm 1 mps 651 mmHg 71%
    07:00 +23°C° 0 mm 1 mps 651 mmHg 65%
    08:00 +25°C° 0 mm 1 mps 652 mmHg 58%
    09:00 +27°C° 0 mm 1 mps 653 mmHg 52%
    10:00 +29°C° 0 mm 2 mps 653 mmHg 46%
    11:00 +31°C° 0 mm 3 mps 653 mmHg 40%
    12:00 +31°C° 0.1 mm 3 mps 653 mmHg 38%
    13:00 +33°C° 0.1 mm 3 mps 652 mmHg 36%
    14:00 +34°C° 0.1 mm 3 mps 651 mmHg 34%
    15:00 +34°C° 0.1 mm 3 mps 651 mmHg 36%
    16:00 +33°C° 0.1 mm 3 mps 650 mmHg 37%
    17:00 +33°C° 0.1 mm 3 mps 649 mmHg 38%
    18:00 +29°C° 0 mm 3 mps 649 mmHg 47%
    19:00 +26°C° 0 mm 2 mps 649 mmHg 55%
    20:00 +24°C° 0 mm 1 mps 649 mmHg 64%
    21:00 +23°C° 0 mm 1 mps 649 mmHg 65%
    22:00 +23°C° 0 mm 1 mps 650 mmHg 67%
    23:00 +22°C° 0 mm 1 mps 650 mmHg 69%

    Day after tomorrow, 21 February, Thursday

    Time Temperature Precipitation Wind Pressure Humidity
    00:00 +22°C° 0 mm 1 mps 650 mmHg 71%
    01:00 +22°C° 0 mm 1 mps 650 mmHg 72%
    02:00 +21°C° 0 mm 1 mps 649 mmHg 74%
    03:00 +21°C° 0 mm 1 mps 649 mmHg 74%
    04:00 +21°C° 0 mm 1 mps 649 mmHg 75%
    05:00 +21°C° 0 mm 1 mps 649 mmHg 75%
    06:00 +22°C° 0 mm 1 mps 650 mmHg 69%
    07:00 +24°C° 0 mm 1 mps 651 mmHg 64%
    08:00 +26°C° 0 mm 1 mps 652 mmHg 58%
    09:00 +28°C° 0 mm 2 mps 652 mmHg 54%
    10:00 +29°C° 0 mm 2 mps 653 mmHg 50%
    11:00 +31°C° 0 mm 3 mps 653 mmHg 46%
    12:00 +33°C° 0.1 mm 3 mps 653 mmHg 44%
    13:00 +34°C° 0.1 mm 3 mps 653 mmHg 41%
    14:00 +35°C° 0.1 mm 3 mps 652 mmHg 38%
    15:00 +35°C° 0 mm 3 mps 652 mmHg 40%
    16:00 +34°C° 0 mm 3 mps 651 mmHg 41%
    17:00 +34°C° 0 mm 3 mps 651 mmHg 43%
    18:00 +30°C° 0.1 mm 2 mps 651 mmHg 51%
    19:00 +28°C° 0.1 mm 2 mps 651 mmHg 60%
    20:00 +25°C° 0.1 mm 1 mps 650 mmHg 69%
    21:00 +25°C° 0 mm 1 mps 651 mmHg 70%
    22:00 +24°C° 0 mm 1 mps 651 mmHg 72%
    23:00 +24°C° 0 mm 1 mps 652 mmHg 73%

    22 February, Friday

    Time Temperature Precipitation Wind Pressure Humidity
    00:00 +24°C° 0 mm 1 mps 651 mmHg 74%
    01:00 +23°C° 0 mm 1 mps 651 mmHg 75%
    02:00 +23°C° 0 mm 1 mps 651 mmHg 75%
    03:00 +23°C° 0.1 mm 1 mps 651 mmHg 76%
    04:00 +22°C° 0.1 mm 1 mps 651 mmHg 76%
    05:00 +22°C° 0.1 mm 1 mps 650 mmHg 76%
    06:00 +24°C° 0 mm 1 mps 651 mmHg 71%
    07:00 +25°C° 0 mm 1 mps 652 mmHg 65%
    08:00 +27°C° 0 mm 1 mps 653 mmHg 59%
    09:00 +29°C° 0 mm 1 mps 654 mmHg 53%
    10:00 +31°C° 0 mm 2 mps 654 mmHg 48%
    11:00 +34°C° 0 mm 2 mps 654 mmHg 43%
    12:00 +35°C° 0 mm 3 mps 654 mmHg 39%
    13:00 +36°C° 0 mm 3 mps 654 mmHg 35%
    14:00 +37°C° 0 mm 3 mps 653 mmHg 32%
    15:00 +36°C° 0 mm 3 mps 653 mmHg 32%
    16:00 +36°C° 0 mm 3 mps 652 mmHg 33%
    17:00 +36°C° 0 mm 3 mps 651 mmHg 33%
    18:00 +32°C° 0 mm 2 mps 651 mmHg 41%
    19:00 +29°C° 0 mm 2 mps 651 mmHg 49%
    20:00 +26°C° 0 mm 1 mps 651 mmHg 58%
    21:00 +26°C° 0 mm 1 mps 651 mmHg 59%
    22:00 +25°C° 0 mm 1 mps 651 mmHg 61%
    23:00 +24°C° 0 mm 1 mps 652 mmHg 63%

    23 February, Saturday

    Time Temperature Precipitation Wind Pressure Humidity
    00:00 +24°C° 0.1 mm 1 mps 651 mmHg 65%
    01:00 +24°C° 0.1 mm 1 mps 651 mmHg 67%
    02:00 +23°C° 0.1 mm 1 mps 650 mmHg 68%
    03:00 +23°C° 0 mm 1 mps 650 mmHg 69%
    04:00 +23°C° 0 mm 1 mps 649 mmHg 70%
    05:00 +22°C° 0 mm 1 mps 649 mmHg 70%
    06:00 +24°C° 0 mm 1 mps 650 mmHg 66%
    07:00 +26°C° 0 mm 1 mps 650 mmHg 61%
    08:00 +27°C° 0 mm 1 mps 651 mmHg 56%
    09:00 +29°C° 0 mm 2 mps 651 mmHg 51%
    10:00 +31°C° 0 mm 2 mps 651 mmHg 46%
    11:00 +34°C° 0 mm 3 mps 651 mmHg 41%
    12:00 +35°C° 0 mm 3 mps 651 mmHg 38%
    13:00 +36°C° 0 mm 4 mps 650 mmHg 35%
    14:00 +37°C° 0 mm 4 mps 649 mmHg 32%
    15:00 +37°C° 0 mm 4 mps 649 mmHg 33%
    16:00 +36°C° 0 mm 3 mps 648 mmHg 33%
    17:00 +36°C° 0 mm 3 mps 647 mmHg 33%
    18:00 +32°C° 0 mm 2 mps 647 mmHg 39%
    19:00 +30°C° 0 mm 2 mps 647 mmHg 45%
    20:00 +27°C° 0 mm 1 mps 647 mmHg 50%
    21:00 +27°C° 0.1 mm 1 mps 647 mmHg 51%
    22:00 +26°C° 0.1 mm 1 mps 647 mmHg 52%
    23:00 +26°C° 0.1 mm 1 mps 648 mmHg 53%

    24 February, Sunday

    Time Temperature Precipitation Wind Pressure Humidity
    00:00 +26°C° 0 mm 1 mps 647 mmHg 54%
    01:00 +25°C° 0 mm 1 mps 647 mmHg 55%
    02:00 +25°C° 0 mm 1 mps 646 mmHg 55%
    03:00 +24°C° 0 mm 1 mps 646 mmHg 56%
    04:00 +24°C° 0 mm 1 mps 646 mmHg 57%
    05:00 +24°C° 0 mm 1 mps 645 mmHg 59%
    06:00 +25°C° 0 mm 1 mps 646 mmHg 54%
    07:00 +27°C° 0 mm 1 mps 647 mmHg 50%
    08:00 +29°C° 0 mm 1 mps 648 mmHg 46%
    09:00 +31°C° 0 mm 1 mps 649 mmHg 41%
    10:00 +34°C° 0 mm 2 mps 649 mmHg 37%
    11:00 +36°C° 0 mm 2 mps 650 mmHg 33%
    12:00 +37°C° 0 mm 3 mps 649 mmHg 31%
    13:00 +38°C° 0 mm 3 mps 649 mmHg 30%
    14:00 +38°C° 0 mm 3 mps 648 mmHg 28%
    15:00 +38°C° 0 mm 3 mps 648 mmHg 30%
    16:00 +37°C° 0 mm 3 mps 648 mmHg 31%
    17:00 +37°C° 0 mm 3 mps 647 mmHg 32%
    18:00 +34°C° 0.1 mm 2 mps 647 mmHg 42%
    19:00 +30°C° 0.1 mm 2 mps 647 mmHg 51%
    20:00 +28°C° 0.1 mm 1 mps 648 mmHg 60%
    21:00 +27°C° 3.1 mm 1 mps 648 mmHg 67%
    22:00 +26°C° 3.1 mm 1 mps 648 mmHg 74%
    23:00 +24°C° 3.1 mm 1 mps 649 mmHg 80%
    Show more